Aeroporto :
LOGIN :

Iscrizione | Disclaimer

   EN    FR    IT 

 










Sommario :    VFR   VFR Marginale   IFR   IFR Intensivo   IFR Molto Intensivo
Visibilità : 
Base nubi : 
>= 8 km
>= 3000ft
5 / 8 km
1000 / 3000 ft
1500m / 5 km
500 / 1000 ft
800 / 1500m
200 / 500 ft
< 800m
< 200 ft
Simboli :   Temporali  Nebbia  Neve Forte  Precipitazioni Forti  Vento > 20 kt
SIGMETs :   Varie  Temporali  Ghiacco  Turbolenza  Onda orograficha  Ceneri Vulcaniche







- Altitudine del aeroporto : 605 ft
- Codice IATA : BAY


LRBM - Tautii Magheraus

ULTIMO METAR :
  • 170430Z AUTO 10005KT 9999 FEW055/// SCT240/// 20/16 Q1016

METARs OBSOLETI :
  • 170400Z AUTO 10005KT 9999 FEW035/// SCT220/// 20/16 Q1016
  • 170330Z AUTO 09006KT 9999 FEW014/// SCT230/// 19/16 Q1016
  • 170300Z AUTO 09006KT 9999 FEW016/// SCT240/// 19/16 Q1016
  • 170230Z AUTO 08006KT 9999 FEW017/// SCT240/// ///// Q1016
  • 170200Z AUTO 17003KT 9999 FEW035/// SCT230/// 20/16 Q1016

Previsioni scadute.
Nessun NOTAM noto per questo aeroporto.



MetMap, La meteo Aeronautica in un colpo d'occhio ! - Copyright ORBIFLY Dicembre 2007 - Disclaimer

ORBIFLY MET'MAP TEAM :

Programmazione e sviluppo : Alexandra Zaïnal
Concezione e sviluppo : Baudouin d'Aumeries
Co-Programmazione e sviluppo : Marc-Olivier Méhu
Supporto tecnico e logistico : Manuel Goepfert
Aiuto per la traduzione : Arnaldo La Scala

Contatto : metmap@orbifly.com




FONTI E CREDITI :

   NOAA